Location: Monrovia
(34.7865°N, 86.7139°W)
Time: 13:46:25
(UTC+00:00)

Alouette 2 Rocket - Pass Details

Date: 14 July 2020
Orbit: 502 x 2650 km, 79.8° (Epoch: 12 August)

Event Time Altitude Azimuth Distance (km) Brightness Sun altitude
Rises 02:06:55 0° 351° (N) 2,990 7.8 -12.2°
Reaches altitude 10° 02:08:49 10° 353° (N) 2,225 7.1 -12.5°
Maximum altitude 02:13:44 81° 81° (E) 963 4.4 -13.3°
Drops below altitude 10° 02:21:27 10° 169° (S) 3,432 6.9 -14.5°
Enters shadow 02:22:01 - 169° (S) 3,642 7.0 -14.6°
